Location: Chittendens Corners
(41.2320°N, 81.4940°W)
Time: 08:03:20
(UTC+00:00)

H-2A R/B - Pass Details

Date: 29 October 2020
Orbit: 528 x 653 km, 98.3° (Epoch: 28 November)

Event Time Altitude Azimuth Distance (km) Brightness Sun altitude
Rises 22:46:23 0° 179° (S) 2,917 6.2 -4.8°
Reaches altitude 10° 22:48:37 10° 185° (S) 2,026 5.5 -5.2°
Maximum altitude 22:52:54 48° 260° (W) 846 3.9 -6.0°
Drops below altitude 10° 22:57:17 10° 335° (NNW) 2,068 5.4 -6.8°
Sets 22:59:36 0° 341° (NNW) 2,984 6.2 -7.2°
